GW0339 Weather Reports


time (UTC)temp
C
wind
direction
speed
KPH
gust
KPH
rain 1hr
cm
rain 24hr
cm
rain mn
cm
humidity
%
barometer
mb
20260505095201 15 0 0.0 0.0 0.00 0.00 0.00 66 1024.8
20260505041231 15 180 1.6 9.7 0.00 0.00 0.00 67 1022.2
20260505035049 15 141 3.2 11.3 0.00 0.00 0.00 65 1022.3
20260505034049 15 186 3.2 9.7 0.00 0.00 0.00 64 1022.3
20260505033111 15 194 3.2 16.1 0.00 0.00 0.00 64 1022.3
20260505032131 16 192 1.6 16.1 0.00 0.00 0.00 62 1022.2
20260505031141 16 250 1.6 8.0 0.00 0.00 0.00 61 1022.2
20260505030134 16 182 0.0 6.4 0.00 0.00 0.00 62 1022.2
20260505024008 16 292 1.6 11.3 0.00 0.00 0.00 61 1022.5
20260505022959 16 273 1.6 11.3 0.00 0.00 0.00 62 1022.5
20260505021930 16 326 3.2 12.9 0.00 0.00 0.00 61 1022.6
20260505020918 16 263 3.2 12.9 0.00 0.00 0.00 63 1022.6
20260505015843 16 284 1.6 11.3 0.00 0.00 0.00 65 1022.8
20260505014839 15 248 3.2 12.9 0.00 0.00 0.00 66 1022.9
20260505012731 15 209 3.2 12.9 0.00 0.00 0.00 66 1023.1
20260505011752 15 229 3.2 14.5 0.00 0.00 0.00 66 1022.9
20260505005629 15 255 3.2 14.5 0.00 0.00 0.00 68 1022.8
20260505004557 15 273 3.2 8.0 0.00 0.00 0.00 68 1022.8
20260505004004 15 208 1.6 11.3 0.00 0.00 0.00 68 1022.7
20260505002942 15 267 3.2 17.7 0.00 0.00 0.00 70 1022.7
20260505001938 14 121 3.2 17.7 0.00 0.00 0.00 71 1022.5
20260505001933 14 189 3.2 17.7 0.00 0.00 0.00 71 1022.5
20260504130417 14 312 4.8 14.5 0.00 0.03 0.03 77 1015.8
20260504110406 15 325 9.7 19.3 0.00 0.03 0.03 79 1014.5